Hourly Data Report for June 21, 2012

HALIFAX STANFIELD INT'L A
NOVA SCOTIA

44°52'48.060" N
63°30'00.050" W
145.40 m
8202250
71395
YHZ

Download Data

Hourly Data (June 2012)
Hourly Data Report for June 21, 2012
TIME
LST
Temp Definition
°C
Dew Point Definition
°C
Rel Hum Definition
%
Precip. Amount Definition
mm

Wind Dir Definition
10's deg

Wind Spd Definition
km/h
Visibility Definition
km
Stn Press Definition
kPa
Hmdx Definition


Wind Chill Definition


Weather Definition


00:00 17.6 14.9 84   31 11 24.1 98.89     Mainly Clear
01:00 16.1 13.9 87   32 15 24.1 98.85     Mainly Clear
02:00 16.5 12.8 79   31 19 24.1 98.81     Mainly Clear
03:00 15.9 12.7 81   31 20 24.1 98.77     Mainly Clear
04:00 15.1 12.6 85   32 17 24.1 98.81     Mainly Clear
05:00 14.4 12.2 87   32 19 24.1 98.87     Mainly Clear
06:00 15.2 12.4 83   33 17 24.1 98.91     Mostly Cloudy
07:00 16.5 12.7 78   35 15 24.1 98.89     Mostly Cloudy
08:00 18.6 12.6 68   35 20 24.1 98.93     Mostly Cloudy
09:00 20.0 13.2 65   33 26 24.1 98.91     Mostly Cloudy
10:00 22.7 14.0 58   35 24 24.1 98.90 26   Mainly Clear
11:00 22.5 14.3 60   33 30 24.1 98.86 26   Mainly Clear
12:00 24.5 14.9 55   34 28 24.1 98.83 28   Mainly Clear
13:00 24.0 14.9 57   35 32 24.1 98.85 28   Mainly Clear
14:00 24.4 14.4 54   35 30 24.1 98.85 28   Mainly Clear
15:00 24.3 14.6 55   35 30 24.1 98.86 28   Mainly Clear
16:00 23.2 14.6 58   10 26 24.1 98.91 27   Mainly Clear
17:00 21.7 14.7 64   5 30 24.1 98.94 25   Mainly Clear
18:00 20.8 14.9 69   2 24 24.1 98.97 25   Mainly Clear
19:00 19.3 14.6 74   3 19 24.1 99.03     Mainly Clear
20:00 17.6 14.0 79   2 15 24.1 99.08     Mainly Clear
21:00 16.1 13.7 86   2 9 24.1 99.13     Mainly Clear
22:00 15.6 13.9 90   36 4 24.1 99.15     Mainly Clear
23:00 15.0 13.8 93   3 7 24.1 99.12     Clear

Notes on Data Quality.

Legend

  • E = Estimated
  • M = Missing
  • NA = Not Available*
  • [empty] = Indicates an unobserved value
Date modified: